Station TIBC1 - Tiburon Pier, San Francisco Bay, CA Image indicating link to RSS feed of recent meteorological observations for station TIBC1


Conditions at TIBC1 as of
(6:14 pm PDT on 05/29/2024)
0114 GMT on 05/30/2024:
Note: This report is more than two hours old
     

Click on the graph icon in the table below to see a time series plot of the last five days of that observation.

5-day plot - Wind Speed Wind Speed (WSPD): 0.0 kts
5-day plot - Atmospheric Pressure Atmospheric Pressure (PRES):30.00 in
5-day plot - Air Temperature Air Temperature (ATMP): 68.7 °F
5-day plot - Dew Point Dew Point (DEWP): 48.7 °F
5-day plot - Wind Speed at 10 Meters Wind Speed at 10 meters (WSPD10M): 0.0 kts
5-day plot - Wind Speed at 20 Meters Wind Speed at 20 meters (WSPD20M): 0.0 kts
5-day plot -  Wind Speed, Wind Gust and Atmospheric Pressure Combined plot of Wind Speed, Gust, and Air Pressure
Previous observations
TIME
(PDT)
5-day plot - Wind Direction
WDIR
 
5-day plot - Wind Speed
WSPD
kts
5-day plot - Wind Gust
GST
kts
5-day plot - Wave Height
WVHT
ft
5-day plot - Dominant Wave Period
DPD
sec
5-day plot - Average Wave Period
APD
sec
5-day plot - Mean Wave Direction
MWD
 
5-day plot - Atmospheric Pressure
PRES
in
5-day plot - Pressure Tendency
PTDY
in
5-day plot - Air Temperature
ATMP
°F
5-day plot - Water Temperature
WTMP
°F
5-day plot - Dew Point
DEWP
°F
5-day plot - Salinity
SAL
psu
5-day plot - Visibility
VIS
nmi
5-day plot - Tide (above MLLW)
TIDE
ft
2024-05-29 05:59 pm- 0.0-----30.00- 70.0- 49.1---
2024-05-29 05:44 pm- 0.0-----30.00- 69.6- 52.3---
2024-05-29 05:29 pm- 0.0-----30.00- 70.2- 50.2---
2024-05-29 05:14 pm SE 2.9-----30.00- 69.4- 50.9---
2024-05-29 04:59 pmESE 1.0-----30.00- 71.4- 51.3---
2024-05-29 04:44 pmSSW 4.1-----30.00- 77.2- 47.3---
2024-05-29 04:29 pm S 7.0-----30.00- 76.6- 47.3---
2024-05-29 04:14 pm S 7.0-----30.00- 76.6- 47.5---
2024-05-29 03:59 pmSSW 6.0-----30.00- 76.8- 48.2---
2024-05-29 03:44 pm W 5.1-----30.00- 76.8- 48.6---
2024-05-29 03:29 pm SW 6.0-----30.00- 76.3- 49.8---
2024-05-29 03:14 pm S 13.0-----30.00- 75.9- 47.3---
2024-05-29 02:59 pm S 11.1-----30.00- 75.0- 46.9---
2024-05-29 02:44 pm SW 6.0-----30.03- 74.7- 47.1---
2024-05-29 02:29 pmSSW 11.1-----30.03- 74.5- 46.6---
2024-05-29 02:14 pm W 5.1-----30.03- 74.1- 46.9---
2024-05-29 01:59 pmSSW 5.1-----30.03- 73.8- 47.3---
2024-05-29 01:44 pmSSW 8.9-----30.03- 71.8- 48.2---
2024-05-29 01:29 pmSSE 7.0-----30.03- 67.1- 52.9---
2024-05-29 01:14 pmSSE 12.0-----30.03- 66.4- 52.7---
2024-05-29 12:59 pmSSE 5.1-----30.06- 68.2- 52.2---
2024-05-29 12:44 pmSSE 11.1-----30.06- 67.5- 52.0---
2024-05-29 12:29 pm S 9.9-----30.06- 66.9- 52.3---
2024-05-29 12:14 pm S 9.9-----30.06- 66.0- 52.2---
2024-05-29 11:59 am SE 8.9-----30.06- 65.5- 52.0---
2024-05-29 11:44 amSSE 11.1-----30.06- 65.1- 51.1---
2024-05-29 11:29 amSSE 8.9-----30.06- 65.8- 50.5---
2024-05-29 11:14 amSSE 8.9-----30.09- 64.0- 50.7---
2024-05-29 10:59 amSSE 7.0-----30.09- 64.4- 50.2---
2024-05-29 10:44 amSSE 8.9-----30.09- 63.0- 49.6---
2024-05-29 10:29 amSSE 12.0-----30.09- 62.1- 48.9---
2024-05-29 10:14 am SE 8.0-----30.09- 61.7- 49.3---
2024-05-29 09:59 amSSE 9.9-----30.09- 60.8- 48.9---
2024-05-29 09:44 amSSE 8.0-----30.09- 59.7- 48.6---
2024-05-29 09:29 amSSE 8.9-----30.09- 59.4- 47.8---
2024-05-29 09:14 amSSE 8.0-----30.09- 59.0- 48.0---
2024-05-29 08:59 amSSE 8.9-----30.09- 58.8- 48.4---
2024-05-29 08:44 am SE 6.0-----30.09- 59.2- 49.3---
2024-05-29 08:29 amESE 6.0-----30.09- 58.8- 49.6---
2024-05-29 08:14 am SE 7.0-----30.09- 58.6- 49.8---
2024-05-29 07:59 am SE 6.0-----30.09- 58.5- 50.2---
2024-05-29 07:44 amSSE 6.0-----30.09- 57.9- 50.2---
2024-05-29 07:29 amESE 4.1-----30.09- 57.9- 49.8---
2024-05-29 07:14 am SE 2.9-----30.09- 58.1- 50.2---
2024-05-29 06:59 am SE 2.9-----30.09- 57.9- 50.0---
2024-05-29 06:44 am SE 4.1-----30.09- 57.7- 50.4---
2024-05-29 06:29 amSSE 1.9-----30.09- 57.4- 50.2---
2024-05-29 06:14 am- 0.0-----30.09- 57.4- 50.7---
2024-05-29 05:59 am- 0.0-----30.09- 56.5- 50.2---
2024-05-29 05:44 am- 0.0-----30.09- 56.3- 49.6---
2024-05-29 05:29 am- 0.0-----30.06- 55.2- 48.7---
2024-05-29 05:14 am- 0.0-----30.06- 53.4- 47.3---
2024-05-29 04:59 amWSW 1.9-----30.06- 52.9- 46.8---
2024-05-29 04:44 amWSW 1.9-----30.06- 53.4- 46.9---
2024-05-29 04:29 amWSW 1.9-----30.06- 53.1- 46.4---
2024-05-29 04:14 am- 0.0-----30.06- 53.4- 46.2---
2024-05-29 03:59 am SW 2.9-----30.06- 53.8- 46.2---
2024-05-29 03:44 amWSW 1.9-----30.06- 53.8- 46.6---
2024-05-29 03:29 am- 0.0-----30.06- 53.8- 46.8---
2024-05-29 03:14 am SW 2.9-----30.06- 53.2- 45.7---
2024-05-29 02:59 am- 0.0-----30.06- 54.0- 46.2---
2024-05-29 02:44 amWSW 2.9-----30.06- 53.4- 45.9---
2024-05-29 02:29 am SW 2.9-----30.06- 54.0- 46.2---
2024-05-29 02:14 am- 0.0-----30.03- 54.5- 47.3---
2024-05-29 01:59 am SW 2.9-----30.06- 54.0- 46.6---
2024-05-29 01:44 am SW 2.9-----30.03- 54.7- 46.8---
2024-05-29 01:29 am- 0.0-----30.03- 54.9- 47.1---
2024-05-29 01:14 amWSW 2.9-----30.03- 55.0- 46.8---
2024-05-29 12:59 amSSW 1.0-----30.03- 55.6- 47.3---
2024-05-29 12:44 am SW 2.9-----30.03- 55.0- 47.3---
2024-05-29 12:29 amSSW 2.9-----30.03- 55.6- 47.7---
2024-05-29 12:14 amSSE 5.1-----30.03- 56.7- 48.7---
2024-05-28 11:59 pm- 0.0-----30.03- 56.7- 46.9---
2024-05-28 11:44 pm- 0.0-----30.03- 57.4- 47.3---
2024-05-28 11:29 pm- 0.0-----30.03- 57.4- 46.4---
2024-05-28 11:14 pm- 0.0-----30.03- 58.1- 46.9---
2024-05-28 10:59 pm- 0.0-----30.03- 58.3- 46.0---
2024-05-28 10:44 pm- 0.0-----30.03- 58.6- 46.4---
2024-05-28 10:29 pm- 0.0-----30.03- 58.5- 46.6---
2024-05-28 10:14 pmSSW 2.9-----30.03- 58.6- 46.2---
2024-05-28 09:59 pm SW 1.9-----30.03- 58.5- 46.8---
2024-05-28 09:44 pm SW 1.0-----30.03- 58.8- 47.5---
2024-05-28 09:29 pmWSW 4.1-----30.03- 59.0- 46.8---
2024-05-28 09:14 pm SE 1.9-----30.03- 60.3- 48.2---
2024-05-28 08:59 pm- 0.0-----30.03- 60.6- 47.1---
2024-05-28 08:44 pm- 0.0-----30.03- 60.1- 47.1---
2024-05-28 08:29 pm- 0.0-----30.03- 61.0- 48.2---
2024-05-28 08:14 pmSSE 5.1-----30.03- 61.0- 47.7---
2024-05-28 07:59 pm SW 4.1-----30.03- 62.4- 47.3---